SCP
-0 0 -0 -0 -0 -0 -0 -0 -0 -0 -0 -0 -0 -0 -0 -0 -0 -0 -0 -0 0 0 0 0 0 0 0 0 0 0 0 0 0 0 0 0 0 -0 -0 -0 -0 -0 -0
-0 -0 -0 -0 -0 -0 -0 -0 -0 0 0 -0 0 0 0 0 0 0 0 0 0 0 0 0 0 0 0 0 0 0 0 0 0 0 0 0 -0 -0 -0 -0 -0 0 -0
-0 -0 -0 -0 -0 -0 -0 -0 -0 0 0 0 0 0 0 0 0 0 0 0 0 0 0 -0 0 0 0 0 -0 -0 0 0 0 0 0 0 0 0 -0 -0 -0 -0 -0
-0 -0 -0 -0 -0 -0 -0 -0 -0 -0 -0 0 0 0 0 0 0 0 0 0 0 0 -0 0 0 0 0 0 0 0 0 0 0 0 0 0 0 0 -0 -0 -0 -0 -0
-0 -0 -0 -0 -0 -0 -0 -0 -0 -0 -0 -0 0 0 0 0 0 0 -0 -0 -0 -0 0 0 0 0 0 0 0 0 0 0 0 0 0 0 0 0 -0 -0 -0 -0 0
0 0 -0 -0 -0 -0 -0 -0 -0 -0 -0 -0 -0 0 0 0 0 -0 -0 -0 0 0 0 0 0 0 0 0 0 0 0 0 0 0 0 0 0 0 -0 -0 -0 -0 -0
0 0 0 -0 -0 -0 -0 -0 -0 -0 -0 -0 -0 -0 -0 0 0 -0 0 0 0 0 0 0 0 0 0 0 0 0 0 0 0 0 0 0 0 0 0 0 0 0 -0
-0 0 0 -0 -0 -0 -0 -0 -0 -0 -0 -0 -0 -0 -0 -0 -0 -0 -0 0 0 0 0 0 0 0 0 0 0 0 0 0 0 0 0 0 0 -0 -0 -0 0 -0 -0
0 0 0 0 0 -0 -0 -0 -0 -0 -0 -0 -0 -0 -0 -0 -0 -0 -0 -0 -0 0 -0 -0 -0 -0 -0 -0 -0 0 0 0 0 0 0 0 0 -0 -0 -0 -0 -0 0
0 0 0 0 0 0 0 -0 -0 -0 -0 -0 -0 -0 -0 -0 -0 -0 -0 -0 -0 -0 -0 0 -0 -0 -0 -0 -0 -0 -0 -0 0 0 0 0 -0 -0 -0 -0 -0 0 0
0 0 0 0 0 0 0 -0 -0 -0 -0 -0 -0 -0 -0 -0 -0 -0 -0 -0 -0 -0 -0 -0 -0 -0 -0 -0 -0 -0 0 0 0 0 0 0 0 -0 0 0 0 0 0
0 0 0 0 0 0 0 0 0 0 0 0 0 -0 -0 -0 -0 -0 -0 -0 -0 -0 -0 -0 -0 -0 -0 0 0 0 0 0 0 0 0 0 0 0 0 0 0 0 0
-0 -0 -0 -0 -0 -0 -0 0 -0 -0 -0 0 0 0 -0 -0 -0 -0 -0 -0 0 -0 0 0 0 0 0 0 0 0 0 0 0 0 0 0 0 0 0 0 0 0 -0
-0 -0 -0 -0 -0 -0 0 -0 0 -0 -0 -0 0 0 -0 -0 -0 0 -0 0 0 0 0 0 0 0 0 0 0 0 0 0 0 0 0 0 0 0 0 0 0 0 0
-0 -0 -0 -0 -0 -0 -0 0 0 0 0 0 -0 0 -0 -0 -0 -0 -0 0 0 0 0 0 0 0 0 0 0 0 0 0 0 0 0 0 0 0 0 0 0 0 -0
-0 -0 -0 -0 -0 -0 -0 0 0 0 0 0 0 0 -0 -0 0 -0 0 0 0 0 0 0 0 0 0 0 0 0 0 0 0 0 0 0 0 0 0 0 0 0 0
-0 -0 -0 -0 -0 -0 -0 0 0 0 0 0 0 0 0 0 -0 0 0 0 0 0 0 0 0 0 0 0 0 0 0 0 1 0 0 0 0 0 0 0 0 0 0
-0 -0 -0 -0 -0 -0 -0 0 0 0 0 0 0 0 0 0 0 0 0 0 0 0 0 1 0 0 0 0 0 0 0 0 0 0 0 0 0 0 0 0 0 0 0
0 0 -0 -0 -0 -0 -0 -0 0 0 0 0 0 0 0 0 0 0 0 0 0 0 0 0 1 0 0 0 0 0 0 0 0 0 0 0 0 0 0 0 0 0 0
0 0 0 0 -0 0 0 0 0 0 0 0 0 0 0 0 0 0 0 0 0 0 1 1 0 1 0 0 0 0 0 0 0 0 0 0 0 0 0 0 0 0 0
0 0 1 0 0 0 1 1 1 1 0 0 0 0 0 0 0 0 0 0 1 1 0 0 0 0 0 0 0 0 0 0 0 0 0 0 0 0 0 0 0 0 0
0 0 0 1 1 0 1 1 1 1 1 1 0 0 1 0 0 1 0 0 1 1 1 0 0 0 0 0 0 0 0 0 0 0 0 0 0 0 0 0 0 0 0
0 0 0 0 1 2 2 2 2 1 0 0 0 0 1 1 1 1 1 1 1 1 1 1 0 0 0 0 0 0 0 0 0 0 0 0 0 0 0 0 0 0 0
0 0 0 0 1 3 2 3 3 1 0 0 0 0 -0 1 1 1 1 1 1 2 1 0 0 0 0 0 0 0 0 0 0 0 0 0 0 0 0 0 0 0 0
0 0 0 0 0 0 0 0 0 0 0 0 0 0 0 1 2 2 3 2 2 2 1 0 0 0 0 0 0 0 0 0 0 0 0 0 0 0 0 0 0 0 0
0 0 0 0 0 0 0 0 0 0 0 0 -0 -0 0 1 3 2 3 4 3 1 0 0 0 0 0 0 0 0 0 0 0 0 0 0 0 0 0 0 0 0 0
Wind_Speed_500mb
47 44 42 40 37 36 34 35 35 37 37 38 39 40 40 39 38 39 40 40 42 43 44 44 44 42 40 39 39 38 37 38 40 43 43 40 39 38 33 31 26 24 22
45 46 45 40 37 37 36 37 37 37 38 38 39 40 39 38 37 37 38 38 37 37 40 41 40 39 39 37 35 34 33 32 33 33 36 38 35 34 33 30 28 25 24
44 46 47 41 37 36 38 39 39 40 39 39 39 39 38 38 36 36 35 34 34 33 33 34 34 32 29 29 30 27 28 28 28 27 25 30 30 30 29 29 28 27 24
45 47 48 43 40 38 39 41 41 41 40 40 40 39 38 36 34 33 33 33 32 32 30 29 27 26 25 25 24 22 22 21 20 18 20 22 24 22 25 26 27 26 25
46 46 46 44 40 39 41 41 41 41 40 39 39 37 36 34 32 31 30 29 27 25 24 24 23 22 21 21 20 18 14 11 12 11 14 11 13 19 20 23 26 25 24
46 46 46 44 42 41 41 41 41 41 40 38 37 36 35 33 30 28 27 26 25 25 23 23 25 25 22 18 17 11 11 8 2 3 6 11 13 15 15 17 22 24 22
48 45 44 43 42 40 40 41 41 41 40 37 36 35 33 31 28 26 24 23 22 21 20 20 22 23 20 17 14 10 6 4 4 7 8 7 7 11 17 15 20 21 21
46 46 44 42 41 40 40 40 40 40 39 37 35 34 31 28 25 24 22 20 19 18 17 18 19 18 15 14 12 9 8 8 9 7 10 13 8 9 15 15 16 18 18
41 43 44 44 43 40 39 39 39 39 38 36 34 32 30 26 23 21 18 16 14 13 13 14 14 13 11 12 13 9 6 10 10 13 13 18 15 13 8 11 15 17 17
35 38 42 43 43 42 41 39 38 38 38 37 35 32 29 26 21 17 14 11 9 9 9 9 8 11 15 15 15 11 15 17 19 21 11 15 14 13 10 12 15 17 18
36 37 41 42 42 41 40 39 40 39 39 38 36 33 29 25 21 17 12 8 7 6 10 13 14 12 11 11 11 10 18 20 14 12 14 7 14 7 10 16 15 16 18
36 44 41 42 42 42 41 41 40 40 40 39 36 33 30 27 22 20 15 12 11 12 16 16 11 6 6 7 10 8 16 19 13 14 15 4 9 6 10 14 15 20 23
25 34 40 41 42 43 43 41 41 39 39 38 36 34 32 32 29 21 19 18 10 9 9 7 7 6 4 4 7 12 16 20 18 26 17 4 5 5 8 15 17 21 28
42 30 29 41 41 41 41 42 39 39 39 38 36 35 36 34 31 25 26 17 10 14 8 6 5 8 4 6 12 7 18 20 17 21 27 9 10 17 10 9 12 18 29
53 44 42 39 36 37 42 41 39 38 39 35 35 36 39 39 33 27 22 18 12 14 12 7 5 4 12 14 16 16 14 22 18 21 17 21 14 11 8 20 15 21 25
63 55 50 49 43 38 42 39 34 31 36 36 35 36 38 37 34 27 23 23 25 27 21 18 16 15 18 17 17 23 16 18 14 25 26 19 19 3 15 14 12 21 20
73 62 58 56 52 44 37 41 38 30 35 40 33 31 32 34 40 38 36 35 33 27 22 21 24 24 25 21 23 23 24 16 11 19 24 14 9 6 18 10 10 16 13
80 78 66 61 60 54 48 40 42 43 43 43 35 35 35 34 36 44 43 39 37 35 33 25 26 32 34 35 26 27 25 20 8 13 9 15 10 5 4 19 15 13 17
92 85 79 74 71 63 57 51 48 50 48 47 43 44 44 42 38 45 44 38 39 37 39 37 37 38 39 36 32 27 21 21 17 16 11 7 5 3 12 13 10 13 22
91 89 81 79 79 75 66 64 61 61 56 54 54 56 55 54 48 47 49 47 46 46 48 44 44 44 44 36 31 22 13 9 15 13 13 10 10 12 12 11 14 24 31
31 68 98 88 92 87 83 81 77 76 71 70 67 66 67 63 57 53 49 53 51 52 49 46 45 45 39 32 25 15 7 19 23 18 17 12 9 7 8 10 19 27 21
12 16 42 66 71 87 82 85 78 79 79 77 77 74 71 71 64 58 54 52 56 55 51 52 47 41 37 31 24 11 19 23 23 23 20 18 12 5 5 9 13 17 20
53 39 12 30 46 69 77 75 78 69 61 57 71 76 76 75 75 69 64 55 57 57 51 47 45 39 37 34 30 21 20 13 37 27 22 16 12 9 8 12 5 6 13
87 76 33 11 25 23 59 71 69 68 50 35 45 62 82 88 84 79 74 66 64 64 54 50 45 41 38 40 35 34 31 34 20 23 20 15 12 8 10 7 8 9 7
77 82 84 56 17 16 25 49 66 68 61 44 46 47 62 87 92 90 82 78 72 72 61 57 50 46 41 43 41 35 34 39 42 25 23 20 10 12 12 8 5 8 12
78 78 76 72 70 40 29 21 33 42 55 68 95 90 70 72 86 91 94 89 80 77 70 61 53 47 43 44 42 37 32 31 35 30 24 19 14 21 12 11 13 16 19
Wind_Direction_500mb
174 164 165 169 165 152 144 135 129 125 126 125 122 120 118 118 115 110 108 108 108 106 105 104 103 103 106 103 98 94 88 82 74 68 64 59 56 53 52 56 60 65 69
166 162 165 168 163 155 147 138 131 128 128 126 123 121 121 120 116 113 114 113 112 109 107 108 106 103 101 99 95 87 81 76 72 66 59 57 54 49 47 52 57 62 64
164 163 164 167 161 156 148 139 136 134 131 129 126 125 124 121 118 115 114 115 114 113 110 109 107 101 98 96 92 90 81 72 63 61 62 56 54 50 47 47 51 55 58
162 162 163 165 163 156 147 142 139 137 134 133 131 129 125 121 119 116 117 117 114 112 108 107 106 104 104 102 95 84 77 73 63 51 50 45 48 48 43 40 44 48 51
162 159 161 162 161 153 149 146 143 141 139 138 134 132 127 124 122 120 120 120 119 114 109 105 106 107 104 106 103 96 87 68 53 38 45 64 46 44 39 36 35 39 43
161 160 160 161 159 156 153 149 147 146 144 142 139 136 133 130 128 126 125 122 117 111 105 99 94 93 95 97 103 97 91 95 42 319 352 40 52 36 28 28 27 26 28
162 160 161 161 159 158 157 154 154 152 150 149 147 144 140 137 135 132 127 122 119 113 106 98 91 90 95 100 93 85 81 56 349 21 344 352 351 357 354 4 9 9 9
167 162 163 161 162 162 162 161 159 158 157 157 156 153 149 147 144 139 135 128 117 108 103 96 93 93 91 88 89 82 56 65 29 337 345 345 312 270 17 349 349 350 349
170 167 167 166 165 167 167 167 165 164 166 166 166 163 160 160 161 156 148 139 126 112 97 89 89 89 82 75 67 71 19 356 337 352 315 310 297 268 283 351 344 339 335
177 175 174 173 172 173 172 172 172 173 175 176 176 174 170 172 173 170 161 146 121 102 92 90 92 90 77 67 45 11 327 326 333 345 358 338 356 270 330 334 347 336 332
180 189 184 181 178 179 179 178 180 181 184 184 185 182 183 182 182 180 169 132 108 125 120 107 99 83 84 76 36 18 355 343 353 36 36 5 14 7 318 318 326 345 338
187 190 193 190 187 187 187 188 186 189 191 191 192 190 190 189 185 190 169 140 103 124 124 119 106 66 76 36 33 354 344 336 347 0 2 327 15 335 288 315 327 345 353
192 193 203 201 197 196 195 194 194 194 197 197 198 198 197 196 202 190 183 166 154 148 124 131 90 80 27 352 332 334 334 331 319 329 334 1 14 327 300 328 349 1 5
199 204 205 204 210 206 205 205 204 203 203 203 204 204 204 203 204 199 178 187 190 215 217 206 224 305 276 280 321 336 335 325 324 323 319 312 326 323 326 353 9 20 360
206 209 208 199 203 210 212 209 211 214 216 214 213 213 214 215 217 214 211 218 227 224 206 207 257 300 316 298 295 306 306 311 326 334 328 331 316 319 333 330 354 3 0
220 213 211 208 205 209 209 207 211 224 226 221 222 223 225 226 225 224 230 234 239 246 248 248 251 269 291 293 300 292 301 311 321 324 325 321 318 311 346 358 34 0 17
227 220 218 215 211 219 221 223 220 229 224 219 218 215 222 230 224 222 224 232 235 239 221 231 235 241 262 263 273 272 283 271 302 314 328 342 32 33 325 55 349 2 358
221 222 220 219 221 221 224 228 234 227 232 229 227 231 231 235 233 228 231 234 233 219 221 234 241 253 263 268 279 281 277 255 264 297 279 286 318 358 4 328 323 317 332
219 221 219 216 222 227 229 230 234 229 230 236 237 241 242 243 242 240 237 236 228 232 232 234 244 259 266 270 277 282 287 262 230 236 276 267 275 270 315 325 325 317 320
220 221 222 220 223 222 228 224 228 228 229 231 237 244 246 246 242 243 245 236 230 231 231 241 248 262 263 266 272 272 265 237 193 217 236 214 243 282 310 303 298 323 324
234 226 216 222 222 217 216 218 223 226 226 228 230 238 242 244 242 237 242 235 230 231 240 247 252 258 258 257 259 270 256 172 179 191 189 198 231 272 316 306 305 317 328
251 245 237 231 226 220 222 221 230 231 231 231 230 231 236 242 241 238 239 238 232 234 240 248 252 251 245 244 236 201 143 145 159 164 185 185 197 171 270 306 318 331 347
24 9 301 242 242 236 231 234 232 235 244 254 246 238 235 239 242 243 243 241 235 236 236 246 243 239 240 233 217 210 175 185 153 157 169 176 184 207 243 268 269 313 332
29 29 13 261 247 270 246 237 235 234 237 247 272 268 260 250 242 239 244 242 239 236 233 237 237 236 237 227 215 213 210 190 168 175 177 189 195 217 207 234 241 283 269
21 23 27 25 351 243 249 253 243 229 227 242 262 273 272 263 256 252 242 241 241 237 234 235 234 231 231 232 229 221 207 193 204 193 194 208 210 175 202 198 184 198 230
21 17 15 18 23 18 351 280 261 265 245 257 269 276 290 265 265 257 251 242 243 239 234 234 232 231 228 226 230 232 229 217 209 207 205 208 183 160 169 163 185 213 257
Wind_Speed_850mb
47 44 42 40 37 36 34 35 35 37 37 38 39 40 40 39 38 39 40 40 42 43 44 44 44 42 40 39 39 38 37 38 40 43 43 40 39 38 33 31 26 24 22
45 46 45 40 37 37 36 37 37 37 38 38 39 40 39 38 37 37 38 38 37 37 40 41 40 39 39 37 35 34 33 32 33 33 36 38 35 34 33 30 28 25 24
44 46 47 41 37 36 38 39 39 40 39 39 39 39 38 38 36 36 35 34 34 33 33 34 34 32 29 29 30 27 28 28 28 27 25 30 30 30 29 29 28 27 24
45 47 48 43 40 38 39 41 41 41 40 40 40 39 38 36 34 33 33 33 32 32 30 29 27 26 25 25 24 22 22 21 20 18 20 22 24 22 25 26 27 26 25
46 46 46 44 40 39 41 41 41 41 40 39 39 37 36 34 32 31 30 29 27 25 24 24 23 22 21 21 20 18 14 11 12 11 14 11 13 19 20 23 26 25 24
46 46 46 44 42 41 41 41 41 41 40 38 37 36 35 33 30 28 27 26 25 25 23 23 25 25 22 18 17 11 11 8 2 3 6 11 13 15 15 17 22 24 22
48 45 44 43 42 40 40 41 41 41 40 37 36 35 33 31 28 26 24 23 22 21 20 20 22 23 20 17 14 10 6 4 4 7 8 7 7 11 17 15 20 21 21
46 46 44 42 41 40 40 40 40 40 39 37 35 34 31 28 25 24 22 20 19 18 17 18 19 18 15 14 12 9 8 8 9 7 10 13 8 9 15 15 16 18 18
41 43 44 44 43 40 39 39 39 39 38 36 34 32 30 26 23 21 18 16 14 13 13 14 14 13 11 12 13 9 6 10 10 13 13 18 15 13 8 11 15 17 17
35 38 42 43 43 42 41 39 38 38 38 37 35 32 29 26 21 17 14 11 9 9 9 9 8 11 15 15 15 11 15 17 19 21 11 15 14 13 10 12 15 17 18
36 37 41 42 42 41 40 39 40 39 39 38 36 33 29 25 21 17 12 8 7 6 10 13 14 12 11 11 11 10 18 20 14 12 14 7 14 7 10 16 15 16 18
36 44 41 42 42 42 41 41 40 40 40 39 36 33 30 27 22 20 15 12 11 12 16 16 11 6 6 7 10 8 16 19 13 14 15 4 9 6 10 14 15 20 23
25 34 40 41 42 43 43 41 41 39 39 38 36 34 32 32 29 21 19 18 10 9 9 7 7 6 4 4 7 12 16 20 18 26 17 4 5 5 8 15 17 21 28
42 30 29 41 41 41 41 42 39 39 39 38 36 35 36 34 31 25 26 17 10 14 8 6 5 8 4 6 12 7 18 20 17 21 27 9 10 17 10 9 12 18 29
53 44 42 39 36 37 42 41 39 38 39 35 35 36 39 39 33 27 22 18 12 14 12 7 5 4 12 14 16 16 14 22 18 21 17 21 14 11 8 20 15 21 25
63 55 50 49 43 38 42 39 34 31 36 36 35 36 38 37 34 27 23 23 25 27 21 18 16 15 18 17 17 23 16 18 14 25 26 19 19 3 15 14 12 21 20
73 62 58 56 52 44 37 41 38 30 35 40 33 31 32 34 40 38 36 35 33 27 22 21 24 24 25 21 23 23 24 16 11 19 24 14 9 6 18 10 10 16 13
80 78 66 61 60 54 48 40 42 43 43 43 35 35 35 34 36 44 43 39 37 35 33 25 26 32 34 35 26 27 25 20 8 13 9 15 10 5 4 19 15 13 17
92 85 79 74 71 63 57 51 48 50 48 47 43 44 44 42 38 45 44 38 39 37 39 37 37 38 39 36 32 27 21 21 17 16 11 7 5 3 12 13 10 13 22
91 89 81 79 79 75 66 64 61 61 56 54 54 56 55 54 48 47 49 47 46 46 48 44 44 44 44 36 31 22 13 9 15 13 13 10 10 12 12 11 14 24 31
31 68 98 88 92 87 83 81 77 76 71 70 67 66 67 63 57 53 49 53 51 52 49 46 45 45 39 32 25 15 7 19 23 18 17 12 9 7 8 10 19 27 21
12 16 42 66 71 87 82 85 78 79 79 77 77 74 71 71 64 58 54 52 56 55 51 52 47 41 37 31 24 11 19 23 23 23 20 18 12 5 5 9 13 17 20
53 39 12 30 46 69 77 75 78 69 61 57 71 76 76 75 75 69 64 55 57 57 51 47 45 39 37 34 30 21 20 13 37 27 22 16 12 9 8 12 5 6 13
87 76 33 11 25 23 59 71 69 68 50 35 45 62 82 88 84 79 74 66 64 64 54 50 45 41 38 40 35 34 31 34 20 23 20 15 12 8 10 7 8 9 7
77 82 84 56 17 16 25 49 66 68 61 44 46 47 62 87 92 90 82 78 72 72 61 57 50 46 41 43 41 35 34 39 42 25 23 20 10 12 12 8 5 8 12
78 78 76 72 70 40 29 21 33 42 55 68 95 90 70 72 86 91 94 89 80 77 70 61 53 47 43 44 42 37 32 31 35 30 24 19 14 21 12 11 13 16 19
Wind_Direction_850mb
174 164 165 169 165 152 144 135 129 125 126 125 122 120 118 118 115 110 108 108 108 106 105 104 103 103 106 103 98 94 88 82 74 68 64 59 56 53 52 56 60 65 69
166 162 165 168 163 155 147 138 131 128 128 126 123 121 121 120 116 113 114 113 112 109 107 108 106 103 101 99 95 87 81 76 72 66 59 57 54 49 47 52 57 62 64
164 163 164 167 161 156 148 139 136 134 131 129 126 125 124 121 118 115 114 115 114 113 110 109 107 101 98 96 92 90 81 72 63 61 62 56 54 50 47 47 51 55 58
162 162 163 165 163 156 147 142 139 137 134 133 131 129 125 121 119 116 117 117 114 112 108 107 106 104 104 102 95 84 77 73 63 51 50 45 48 48 43 40 44 48 51
162 159 161 162 161 153 149 146 143 141 139 138 134 132 127 124 122 120 120 120 119 114 109 105 106 107 104 106 103 96 87 68 53 38 45 64 46 44 39 36 35 39 43
161 160 160 161 159 156 153 149 147 146 144 142 139 136 133 130 128 126 125 122 117 111 105 99 94 93 95 97 103 97 91 95 42 319 352 40 52 36 28 28 27 26 28
162 160 161 161 159 158 157 154 154 152 150 149 147 144 140 137 135 132 127 122 119 113 106 98 91 90 95 100 93 85 81 56 349 21 344 352 351 357 354 4 9 9 9
167 162 163 161 162 162 162 161 159 158 157 157 156 153 149 147 144 139 135 128 117 108 103 96 93 93 91 88 89 82 56 65 29 337 345 345 312 270 17 349 349 350 349
170 167 167 166 165 167 167 167 165 164 166 166 166 163 160 160 161 156 148 139 126 112 97 89 89 89 82 75 67 71 19 356 337 352 315 310 297 268 283 351 344 339 335
177 175 174 173 172 173 172 172 172 173 175 176 176 174 170 172 173 170 161 146 121 102 92 90 92 90 77 67 45 11 327 326 333 345 358 338 356 270 330 334 347 336 332
180 189 184 181 178 179 179 178 180 181 184 184 185 182 183 182 182 180 169 132 108 125 120 107 99 83 84 76 36 18 355 343 353 36 36 5 14 7 318 318 326 345 338
187 190 193 190 187 187 187 188 186 189 191 191 192 190 190 189 185 190 169 140 103 124 124 119 106 66 76 36 33 354 344 336 347 0 2 327 15 335 288 315 327 345 353
192 193 203 201 197 196 195 194 194 194 197 197 198 198 197 196 202 190 183 166 154 148 124 131 90 80 27 352 332 334 334 331 319 329 334 1 14 327 300 328 349 1 5
199 204 205 204 210 206 205 205 204 203 203 203 204 204 204 203 204 199 178 187 190 215 217 206 224 305 276 280 321 336 335 325 324 323 319 312 326 323 326 353 9 20 360
206 209 208 199 203 210 212 209 211 214 216 214 213 213 214 215 217 214 211 218 227 224 206 207 257 300 316 298 295 306 306 311 326 334 328 331 316 319 333 330 354 3 0
220 213 211 208 205 209 209 207 211 224 226 221 222 223 225 226 225 224 230 234 239 246 248 248 251 269 291 293 300 292 301 311 321 324 325 321 318 311 346 358 34 0 17
227 220 218 215 211 219 221 223 220 229 224 219 218 215 222 230 224 222 224 232 235 239 221 231 235 241 262 263 273 272 283 271 302 314 328 342 32 33 325 55 349 2 358
221 222 220 219 221 221 224 228 234 227 232 229 227 231 231 235 233 228 231 234 233 219 221 234 241 253 263 268 279 281 277 255 264 297 279 286 318 358 4 328 323 317 332
219 221 219 216 222 227 229 230 234 229 230 236 237 241 242 243 242 240 237 236 228 232 232 234 244 259 266 270 277 282 287 262 230 236 276 267 275 270 315 325 325 317 320
220 221 222 220 223 222 228 224 228 228 229 231 237 244 246 246 242 243 245 236 230 231 231 241 248 262 263 266 272 272 265 237 193 217 236 214 243 282 310 303 298 323 324
234 226 216 222 222 217 216 218 223 226 226 228 230 238 242 244 242 237 242 235 230 231 240 247 252 258 258 257 259 270 256 172 179 191 189 198 231 272 316 306 305 317 328
251 245 237 231 226 220 222 221 230 231 231 231 230 231 236 242 241 238 239 238 232 234 240 248 252 251 245 244 236 201 143 145 159 164 185 185 197 171 270 306 318 331 347
24 9 301 242 242 236 231 234 232 235 244 254 246 238 235 239 242 243 243 241 235 236 236 246 243 239 240 233 217 210 175 185 153 157 169 176 184 207 243 268 269 313 332
29 29 13 261 247 270 246 237 235 234 237 247 272 268 260 250 242 239 244 242 239 236 233 237 237 236 237 227 215 213 210 190 168 175 177 189 195 217 207 234 241 283 269
21 23 27 25 351 243 249 253 243 229 227 242 262 273 272 263 256 252 242 241 241 237 234 235 234 231 231 232 229 221 207 193 204 193 194 208 210 175 202 198 184 198 230
21 17 15 18 23 18 351 280 261 265 245 257 269 276 290 265 265 257 251 242 243 239 234 234 232 231 228 226 230 232 229 217 209 207 205 208 183 160 169 163 185 213 257